Corning, AR

9:43 PM CDT on September 25, 2017 (GMT -0500)
Corning

Weather History for K4M9 - November, 2012

Change the Weather History Date:

Wednesday, November 7, 2012

  Actual Average (KARG) Record (KARG)
Temperature  
Mean Temperature 45 °F -  
Max Temperature 55 °F 58 °F 80 °F (1999)
Min Temperature 35 °F 42 °F 17 °F (2014)
Degree Days  
Heating Degree Days 20    
Moisture  
Dew Point 36 °F    
Average Humidity 72    
Maximum Humidity 100    
Minimum Humidity 41    
Precipitation  
Precipitation 0.00 in - - ()
Sea Level Pressure  
Sea Level Pressure 30.09 in    
Wind  
Wind Speed 8 mph (NNW)    
Max Wind Speed 20 mph    
Max Gust Speed 26 mph    
Visibility 10 miles    
Events      
Averages and records for this station are not official NWS values.
T = Trace of Precipitation, MM = Missing Value Source: NWS Daily Summary

Daily Weather History Graph

Daily Weather History Graph

Search for Another Location

Airport or City:

Trip Planner

Search our weather history database for the weather conditions in past years. The results will help you decide how hot, cold, wet, or windy it might be!

Date:

Astronomy

Nov. 07, 2012 Rise Set
Actual Time 6:32 AM CST 4:59 PM CST
Civil Twilight 6:05 AM CST 5:26 PM CST
Nautical Twilight 5:34 AM CST 5:57 PM CST
Astronomical Twilight 5:04 AM CST 6:27 PM CST
Moon No Moon Rise 12:58 PM CST (11/7)
Length of Visible Light 11h 21m
Length of Day
10h 27m
Last Quarter, 43% of the Moon is Illuminated
Nov 7
Last Quarter
Nov 13
New
Nov 20
First Quarter
Nov 28
Full
Dec 6
Last Quarter

Hourly Weather History & Observations

Time (CST) Temp. Windchill Dew Point Humidity Pressure Visibility Wind Dir Wind Speed Gust Speed Precip Events Conditions
12:15 AM 44.6 °F 39.7 °F 42.8 °F 93% 29.99 in 8.0 mi WSW 9.2 mph - N/A   Unknown
12:35 AM 44.6 °F 40.2 °F 42.8 °F 93% 29.99 in 7.0 mi West 8.1 mph - N/A   Unknown
12:55 AM 44.6 °F 41.4 °F 42.8 °F 93% 29.99 in 8.0 mi West 5.8 mph - N/A   Unknown
1:15 AM 42.8 °F 40.1 °F 41.0 °F 93% 29.99 in 8.0 mi West 4.6 mph - N/A   Unknown
1:35 AM 41.0 °F 38.0 °F 41.0 °F 100% 29.99 in 8.0 mi WSW 4.6 mph - N/A   Unknown
1:55 AM 41.0 °F 36.4 °F 41.0 °F 100% 30.00 in 8.0 mi West 6.9 mph - N/A   Unknown
2:15 AM 41.0 °F 37.1 °F 39.2 °F 93% 30.00 in 10.0 mi West 5.8 mph - N/A   Unknown
2:35 AM 41.0 °F 37.1 °F 39.2 °F 93% 30.00 in 10.0 mi West 5.8 mph - N/A   Unknown
2:55 AM 41.0 °F 36.4 °F 39.2 °F 93% 30.00 in 10.0 mi West 6.9 mph - N/A   Unknown
3:15 AM 41.0 °F 37.1 °F 37.4 °F 87% 29.99 in 10.0 mi WNW 5.8 mph - N/A   Unknown
3:35 AM 41.0 °F 36.4 °F 37.4 °F 87% 30.00 in 10.0 mi WNW 6.9 mph - N/A   Unknown
3:55 AM 41.0 °F 35.8 °F 37.4 °F 87% 30.00 in 10.0 mi WNW 8.1 mph - N/A   Unknown
4:15 AM 41.0 °F 35.8 °F 37.4 °F 87% 30.00 in 10.0 mi WNW 8.1 mph - N/A   Unknown
4:35 AM 39.2 °F 35.0 °F 35.6 °F 87% 30.01 in 10.0 mi WNW 5.8 mph - N/A   Unknown
4:55 AM 39.2 °F 34.2 °F 35.6 °F 87% 30.01 in 10.0 mi West 6.9 mph - N/A   Unknown
5:15 AM 39.2 °F 34.2 °F 35.6 °F 87% 30.01 in 10.0 mi WNW 6.9 mph - N/A   Unknown
5:35 AM 41.0 °F 37.1 °F 37.4 °F 87% 30.01 in 10.0 mi WNW 5.8 mph - N/A   Unknown
6:15 AM 41.0 °F 36.4 °F 37.4 °F 87% 30.02 in 10.0 mi WNW 6.9 mph - N/A   Unknown
6:35 AM 41.0 °F 35.8 °F 37.4 °F 87% 30.02 in 10.0 mi WNW 8.1 mph - N/A   Unknown
6:55 AM 41.0 °F 36.4 °F 37.4 °F 87% 30.03 in 10.0 mi WNW 6.9 mph - N/A   Unknown
7:15 AM 41.0 °F 35.8 °F 37.4 °F 87% 30.04 in 10.0 mi WNW 8.1 mph - N/A   Unknown
7:35 AM 42.8 °F 38.0 °F 37.4 °F 81% 30.05 in 10.0 mi WNW 8.1 mph - N/A   Unknown
7:55 AM 44.6 °F 40.2 °F 37.4 °F 76% 30.05 in 10.0 mi WNW 8.1 mph - N/A   Unknown
8:15 AM 44.6 °F 39.7 °F 37.4 °F 76% 30.06 in 10.0 mi WNW 9.2 mph - N/A   Unknown
8:35 AM 44.6 °F 39.7 °F 37.4 °F 76% 30.06 in 10.0 mi WNW 9.2 mph - N/A   Unknown
8:55 AM 46.4 °F 41.9 °F 37.4 °F 71% 30.06 in 10.0 mi NW 9.2 mph - N/A   Unknown
9:15 AM 46.4 °F 40.7 °F 37.4 °F 71% 30.07 in 10.0 mi NW 12.7 mph 17.3 mph N/A   Unknown
9:35 AM 48.2 °F - 37.4 °F 66% 30.07 in 10.0 mi NW 16.1 mph - N/A   Unknown
9:55 AM 50.0 °F - 37.4 °F 62% 30.07 in 10.0 mi NNW 12.7 mph - N/A   Unknown
10:15 AM 50.0 °F - 37.4 °F 62% 30.07 in 10.0 mi NNW 15.0 mph 19.6 mph N/A   Unknown
10:35 AM 51.8 °F - 35.6 °F 54% 30.08 in 10.0 mi NNW 19.6 mph 26.5 mph N/A   Unknown
10:55 AM 53.6 °F - 35.6 °F 51% 30.08 in 10.0 mi NNW 15.0 mph 23.0 mph N/A   Unknown
11:15 AM 53.6 °F - 37.4 °F 54% 30.08 in 10.0 mi NNW 17.3 mph 24.2 mph N/A   Unknown
11:35 AM 53.6 °F - 35.6 °F 51% 30.08 in 10.0 mi NNW 17.3 mph 20.7 mph N/A   Unknown
11:55 AM 53.6 °F - 33.8 °F 47% 30.08 in 10.0 mi North 16.1 mph 25.3 mph N/A   Unknown
12:15 PM 53.6 °F - 33.8 °F 47% 30.08 in 10.0 mi North 13.8 mph 18.4 mph N/A   Unknown
12:35 PM 53.6 °F - 33.8 °F 47% 30.08 in 10.0 mi North 9.2 mph - N/A   Unknown
12:55 PM 55.4 °F - 35.6 °F 47% 30.08 in 10.0 mi NNW 15.0 mph 20.7 mph N/A   Unknown
1:15 PM 55.4 °F - 32.0 °F 41% 30.08 in 10.0 mi North 11.5 mph - N/A   Unknown
1:35 PM 53.6 °F - 33.8 °F 47% 30.08 in 10.0 mi North 11.5 mph 16.1 mph N/A   Unknown
1:55 PM 55.4 °F - 32.0 °F 41% 30.08 in 10.0 mi North 8.1 mph - N/A   Unknown
2:15 PM 55.4 °F - 32.0 °F 41% 30.08 in 10.0 mi North 9.2 mph - N/A   Unknown
2:35 PM 55.4 °F - 32.0 °F 41% 30.08 in 10.0 mi North 9.2 mph - N/A   Unknown
2:55 PM 55.4 °F - 32.0 °F 41% 30.09 in 10.0 mi North 9.2 mph 19.6 mph N/A   Unknown
3:15 PM 55.4 °F - 32.0 °F 41% 30.09 in 10.0 mi North 6.9 mph - N/A   Unknown
3:35 PM 55.4 °F - 32.0 °F 41% 30.10 in 10.0 mi North 9.2 mph 17.3 mph N/A   Unknown
3:55 PM 53.6 °F - 32.0 °F 44% 30.11 in 10.0 mi NE 9.2 mph - N/A   Unknown
4:15 PM 53.6 °F - 35.6 °F 51% 30.11 in 10.0 mi NNE 11.5 mph - N/A   Unknown
4:35 PM 53.6 °F - 35.6 °F 51% 30.12 in 10.0 mi NE 11.5 mph - N/A   Unknown
4:55 PM 50.0 °F - 35.6 °F 58% 30.12 in 7.0 mi NE 8.1 mph - N/A   Unknown
5:15 PM 46.4 °F 42.9 °F 35.6 °F 66% 30.13 in 10.0 mi NE 6.9 mph - N/A   Unknown
5:35 PM 46.4 °F 43.5 °F 35.6 °F 66% 30.14 in 10.0 mi NE 5.8 mph - N/A   Unknown
5:55 PM 44.6 °F 40.2 °F 35.6 °F 71% 30.15 in 10.0 mi NE 8.1 mph - N/A   Unknown
6:15 PM 42.8 °F 38.6 °F 35.6 °F 76% 30.16 in 10.0 mi NE 6.9 mph - N/A   Unknown
6:35 PM 42.8 °F 40.1 °F 33.8 °F 70% 30.16 in 10.0 mi NE 4.6 mph - N/A   Unknown
6:55 PM 44.6 °F 42.2 °F 33.8 °F 66% 30.16 in 10.0 mi NE 4.6 mph - N/A   Unknown
7:15 PM 42.8 °F 41.1 °F 33.8 °F 70% 30.17 in 10.0 mi NE 3.5 mph - N/A   Unknown
7:35 PM 41.0 °F 38.0 °F 33.8 °F 76% 30.17 in 10.0 mi ENE 4.6 mph - N/A   Unknown
7:55 PM 41.0 °F - 33.8 °F 76% 30.17 in 10.0 mi Calm Calm - N/A   Unknown
8:15 PM 39.2 °F - 33.8 °F 81% 30.18 in 10.0 mi Calm Calm - N/A   Unknown
8:35 PM 39.2 °F - 33.8 °F 81% 30.19 in 10.0 mi Calm Calm - N/A   Unknown
8:55 PM 37.4 °F - 33.8 °F 87% 30.19 in 10.0 mi Calm Calm - N/A   Unknown
9:15 PM 37.4 °F - 35.6 °F 93% 30.19 in 10.0 mi Calm Calm - N/A   Unknown
9:35 PM 37.4 °F - 33.8 °F 87% 30.19 in 10.0 mi Calm Calm - N/A   Unknown
9:55 PM 37.4 °F - 32.0 °F 81% 30.19 in 10.0 mi Calm Calm - N/A   Unknown
10:15 PM 35.6 °F - 32.0 °F 87% 30.20 in 10.0 mi Calm Calm - N/A   Unknown
10:35 PM 35.6 °F - 32.0 °F 87% 30.20 in 10.0 mi Calm Calm - N/A   Unknown
10:55 PM 35.6 °F - 32.0 °F 87% 30.20 in 10.0 mi Calm Calm - N/A   Unknown
11:15 PM 35.6 °F - 32.0 °F 87% 30.19 in 8.0 mi Calm Calm - N/A   Unknown
11:55 PM 35.6 °F - 32.0 °F 87% 30.20 in 10.0 mi Calm Calm - N/A   Unknown